Location: Munkebjergskolens Observatorium
(55.3864°N, 10.3987°E)
Time: 23:10:33
(UTC+01:00)

DELTA 1 DEB - Pass Details

Date: 03 December 2023
Orbit: 783 x 826 km, 98.9° (Epoch: 04 March)

Event Time Altitude Azimuth Distance (km) Brightness Sun altitude
Rises 06:24:38 0° 20° (NNE) 3,365 ? -15.7°
Reaches altitude 10° 06:27:11 10° 29° (NNE) 2,433 ? -15.4°
Maximum altitude 06:32:08 36° 96° (E) 1,296 ? -14.7°
Drops below altitude 10° 06:37:04 10° 162° (SSE) 2,429 ? -14.0°
Sets 06:39:36 0° 171° (S) 3,358 ? -13.7°
